Location: Casilda
(33.0440°S, 61.1680°W)
Time: 17:57:37
(UTC-03:00)

ISS - Pass Details

Date: 18 October 2018
Orbit: 403 x 408 km, 51.6° (Epoch: 17 October)

Event Time Altitude Azimuth Distance (km) Brightness Sun altitude
Exits shadow 05:18:20 - 224° (SW) 2,241 -0.3 -13.3°
Reaches altitude 10° 05:20:12 10° 221° (SW) 1,480 -1.2 -12.9°
Maximum altitude 05:23:30 67° 137° (SE) 447 -3.4 -12.3°
Drops below altitude 10° 05:26:46 10° 53° (NE) 1,463 -0.5 -11.6°
Sets 05:28:51 0° 50° (NE) 2,317 0.5 -11.2°
